Location: Les Jeannots
(43.2262°N, 5.5774°E)
Time: 08:40:28
(UTC+00:00)

COSMOS 2428 - Pass Details

Date: 05 July 2020
Orbit: 844 x 859 km, 70.9° (Epoch: 05 August)

Event Time Altitude Azimuth Distance (km) Brightness Sun altitude
Exits shadow 21:57:27 - 220° (SW) 2,937 5.3 -19.8°
Reaches altitude 10° 21:58:44 10° 223° (SW) 2,458 4.9 -19.9°
Maximum altitude 22:04:14 52° 300° (WNW) 1,040 3.4 -20.3°
Drops below altitude 10° 22:09:47 10° 16° (NNE) 2,476 5.8 -20.7°
Sets 22:12:19 0° 22° (NNE) 3,417 6.6 -20.9°
